Skip Page Navigation
NASA JPL Caltech
NASA Logo - Jet Propulsion Laboratory + View the NASA Portal
+ Center for Near-Earth Object Studies
JPL Home Earth Solar System Stars & Galaxies Technology
JPL Solar System Dynamics
BODIES ORBITS EPHEMERIDES TOOLS PHYSICAL DATA DISCOVERY FAQ SITE MAP
JPL Small-Body Database Browser
Search: [ help ]  
351078 (2003 UH55)
Classification: Main-belt Asteroid          SPK-ID: 2351078
Ephemeris | Orbit Diagram | Orbital Elements | Mission Design | Physical Parameters | Discovery Circumstances ]

[ show orbit diagram ]
Orbital Elements at Epoch 2459000.5 (2020-May-31.0) TDB
Reference: JPL 4 (heliocentric ecliptic J2000)
 Element Value Uncertainty (1-sigma)   Units 
e .2863964538220226 1.0037e-07  
a 2.641309563190004 2.5229e-08 au
q 1.884847870846192 2.5686e-07 au
i 8.486924171330781 1.3615e-05 deg
node 282.8109961418452 5.5847e-05 deg
peri 116.5602195759323 6.6285e-05 deg
M 313.9377306077826 3.327e-05 deg
tp 2459201.118146060614
(2020-Dec-17.61814606)
0.00014698 TDB
period 1567.932573335683
4.29
2.2465e-05
6.151e-08
d
yr
n .2296017099983588 3.2896e-09 deg/d
Q 3.397771255533816 3.2454e-08 au
  Orbit Determination Parameters
   # obs. used (total)      85  
   data-arc span      6250 days (17.11 yr)  
   first obs. used      1999-12-18  
   last obs. used      2017-01-27  
   planetary ephem.      DE431  
   SB-pert. ephem.      SB431-N16  
   condition code      0  
   norm. resid. RMS      .58666  
   source      ORB  
   producer      Otto Matic  
   solution date      2017-Apr-10 07:39:44  

Additional Information
 Earth MOID = .911218 au 
 Jupiter MOID = 2.10811 au 
 T_jup = 3.320 
[ hide covariance matrix ]
Orbital Elements at Epoch 2455869.5 (2011-Nov-04.0) TDB
Reference: JPL 4 (heliocentric ecliptic J2000)
 Element Value Uncertainty (1-sigma)   Units 
e .2905771521034472 1.0162e-07  
q 1.8713902324933 2.6207e-07 au
tp 2456066.675115821817
(2012-May-19.17511582)
0.00011179 TDB
node 283.0209637717446 5.6179e-05 deg
peri 116.1917964580351 6.5891e-05 deg
i 8.46775152760398 1.359e-05 deg
  Orbit Determination Parameters
   # obs. used (total)      85  
   data-arc span      6250 days (17.11 yr)  
   first obs. used      1999-12-18  
   last obs. used      2017-01-27  
   planetary ephem.      DE431  
   SB-pert. ephem.      SB431-N16  
   condition code      0  
   norm. resid. RMS      .58666  
   source      ORB  
   producer      Otto Matic  
   solution date      2017-Apr-10 07:39:44  

Additional Information
 Jupiter MOID = 2.10811 au 
 T_jup = 3.320 
Orbit Covariance (6×6)
  e q tp node peri i
e 1.032741520495087E-14 -2.658809040505074E-14 2.027621025762858E-12 -1.237145957284276E-13 -4.529687581944114E-14 -7.197876140264574E-14
q -2.658809040505074E-14 6.868156964421813E-14 -4.283875455328442E-12 3.287058693862541E-13 3.741611829514034E-13 1.908716932425148E-13
tp 2.027621025762858E-12 -4.283875455328442E-12 1.249599184993375E-8 -1.911993856500086E-11 3.810888820978061E-9 -4.84182543442087E-11
node -1.237145957284276E-13 3.287058693862541E-13 -1.911993856500086E-11 3.156055710471678E-9 -3.113170099832853E-9 3.287044197816353E-11
peri -4.529687581944114E-14 3.741611829514034E-13 3.810888820978061E-9 -3.113170099832853E-9 4.341687150091931E-9 -4.095319786147389E-11
i -7.197876140264574E-14 1.908716932425148E-13 -4.84182543442087E-11 3.287044197816353E-11 -4.095319786147389E-11 1.84699988813258E-10

Ephemeris | Orbit Diagram | Orbital Elements | Mission Design | Physical Parameters | Discovery Circumstances ]

Physical Parameter Table
Parameter Symbol Value Units Sigma Reference Notes
absolute magnitude H 17.0   n/a MPO254690  

351078 (2003 UH55)          Discovered 2003-Oct-18 by NEAT at Palomar
Reference: 20130127/Numbers.arcLast Updated: 2013-01-31
Ephemeris | Orbit Diagram | Orbital Elements | Mission Design | Physical Parameters | Discovery Circumstances ]
ABOUT SSD CREDITS/AWARDS PRIVACY/COPYRIGHT GLOSSARY LINKS
FirstGov 2020-Aug-09 00:48 UT
(server date/time)  
NASA Home Page
Site Manager:   Ryan S. Park
Webmaster  Alan B. Chamberlin